www.pogodaiklimat.ru

Погода и климат >> Архив погоды >> Россия >> Ямало-Ненецкий АО >> Харп


ПОГОДА в Харпе

  • Прогноз погоды в Харпе
  • Монитор погоды в Харпе
  • Климат города

АРХИВ ПОГОДЫ в Харпе

Время (UTC), дата Ветер
(напр.,м/с)
 
Видим.   Явления Облачность Т
(С)
Тd
(С)
f
(%)
Тe
(С)
Тes
(С)
Комфортность P
(гПа)
Po
(гПа)
Тmin
(С)
Tmax
(С)
R
(мм)
R24
(мм)
S
(см)
06 9.12 штиль 0 н/о н/о -27.1 -30.6 72 -27 -27 1019.3 1008.6 -27.3
09 9.12 штиль 0 н/о н/о -23.5 -26.5 76 -24 -24 1018.8 1008.3
12 9.12 штиль 0 н/о н/о -18.3 -20.8 81 -18 -18 1018.0 1007.7
12 10.12 штиль 0 н/о н/о -22.8 -25.9 76 -23 -23 1018.5 1008.0
18 10.12 штиль 0 н/о н/о -18.9 -21.5 80 -19 -19 1018.2 1007.9
21 10.12 штиль 0 н/о н/о -18.2 -20.6 81 -18 -18 1017.6 1007.3
00 11.12 штиль 0 н/о н/о -13.2 -15.2 85 -13 -13 1017.5 1007.4
03 11.12 штиль 0 н/о н/о -10.5 -12.2 87 -11 -11 1016.4 1006.5 -21.0
06 11.12 н/о н/о -12.0 1015.8 1005.8
09 11.12 штиль 0 н/о н/о -10.9 -12.8 86 -11 -11 1015.4 1005.4
12 11.12 штиль 0 н/о н/о -11.0 -12.9 86 -11 -11 1015.1 1005.2
15 11.12 штиль 0 н/о н/о -10.6 -12.4 87 -11 -11 1014.9 1004.9
18 11.12 С 3 н/о н/о -4.9 -7.6 81 -10 -10 1014.7 1005.0
21 11.12 С 5 н/о н/о -5.2 -8.0 81 -12 -12 1015.5 1005.7
00 12.12 С 4
{11}
н/о н/о -4.8 -8.1 78 -11 -11 1015.8 1006.0
03 12.12 С 6
{11}
н/о н/о -5.2 -8.4 78 -13 -13 1016.1 1006.4 -10.7
06 12.12 С 4 н/о н/о -5.4 -7.9 83 -12 -12 1016.4 1006.6
09 12.12 СВ 2 н/о н/о -5.2 -8.0 81 -9 -9 1015.8 1006.1
12 12.12 СЗ 2 н/о н/о -4.5 -8.5 74 -9 -9 1015.4 1005.6
15 12.12 С 1 н/о н/о -8.0 -10.4 83 -10 -10 1015.4 1005.5 -4.5
18 12.12 штиль 0 н/о н/о -12.6 -14.3 87 -13 -13 1014.6 1004.5
21 12.12 В 1 н/о н/о -13.8 -15.6 86 -16 -16 1013.5 1003.5
00 13.12 З 5-11
{15}
н/о н/о -3.8 -6.8 80 -11 -11 1010.9 1001.2
03 13.12 З 6-12
{18}
н/о н/о -4.0 -6.3 84 -12 -12 1009.7 1000.1 -16.3
06 13.12 СЗ 5
{12}
н/о н/о -5.5 -9.9 71 -13 -13 1012.7 1002.9
09 13.12 С 5
{12}
н/о н/о -7.8 -13.9 62 -15 -15 1016.5 1006.6
12 13.12 З 1 н/о н/о -18.8 -21.4 80 -22 -22 1018.9 1008.6
15 13.12 штиль 0 н/о н/о -20.3 -23.0 79 -20 -20 1017.3 1006.9 -3.7
18 13.12 ЮВ 2 н/о н/о -12.0 -13.8 86 -17 -17 1010.8 1000.8
21 13.12 СЗ 9-18
{18}
н/о н/о -1.3 -3.0 88 -10 -10 1003.0 993.5
00 14.12 СЗ 11-20
{22}
н/о н/о -1.3 -3.4 86 -10 -10 1004.0 994.5
03 14.12 СЗ 11-20
{22}
н/о н/о -1.7 -4.2 83 -11 -11 1003.4 993.9 -20.7
06 14.12 З 13-27
{28}
н/о н/о -1.2 -2.9 88 -11 -11 999.5 990.0
09 14.12 СЗ 12-23
{27}
н/о н/о +0.5 -2.5 80 -8 -8 999.2 989.8
12 14.12 З 5
{23}
н/о н/о -0.1 -3.5 78 -6 -6 1003.4 993.9
15 14.12 ЮЗ 3
{18}
н/о н/о -0.3 -4.5 73 -5 -5 1005.3 995.8 +0.9 6
18 14.12 З 5-10
{12}
н/о н/о -1.2 -5.4 73 -7 -7 1007.0 997.5
21 14.12 СЗ 3
{11}
н/о н/о -1.3 -6.0 70 -6 -6 1007.0 997.5

 

Местоположение метеостанции Харп (Ямало-Ненецкий АО, Россия): широта 66.80 долгота 65.78 высота над уровнем моря 76 м.

В архиве по умолчанию представлена погода в Харпе за последнюю неделю. Архивные данные за месяц целиком и за предыдущие месяцы, начиная с января 2011 года, Вы можете получить, выбрав интересующий диапазон дат из раскрывающегося списка и нажав кнопку "Ввод!".


*Определитесь, кто Вы:
робот инопланетянин человек

Внимание! Время в таблицах - всемирное. Для получения местного времени необходимо прибавить поправку, которая в Харпе равна 5 ч.

Смотрите также архив погоды в соседних городах и на ближайших метеорологических станциях:

Погода в Салехарде (Ямало-Ненецкий АО, Россия) (49 км)
Погода в Елецкой (Коми, Россия) (80 км)
Погода в Белоярске (Ямало-Ненецкий АО, Россия) (103 км)
Погода в Питляре (Ямало-Ненецкий АО, Россия) (108 км)
Погода в Воркуте (Коми, Россия) (109 км)
Погода в Полуе (Ямало-Ненецкий АО, Россия) (155 км)
Погода в Мужах (Ямало-Ненецкий АО, Россия) (165 км)
Погода в Петруни (Коми, Россия) (225 км)
Погода в Усть-Каре (Ненецкий АО, Россия) (275 км)
Погода в Ныде (Ямало-Ненецкий АО, Россия) (315 км)

Пояснения к столбцам:

Ветер - указаны скорость ветра в м/с - средняя за 10 мин, порывы в срок и между сроками (в фигурных скобках) и направление, откуда дует ветер: С - северный, СВ - северо-восточный, В - восточный, ЮВ - юго-восточный, Ю - южный, ЮЗ - юго-западный, З - западный, СЗ - северо-западный.
Видимость - горизонтальная дальность видимости в метрах или километрах. При видимости от 1 до 10 км при отсутствии осадков обычно наблюдается дымка, при ухудшении видимости до 1 км и менее - туман. В сухую погоду видимость может ухудшаться дымом, пылью или мглою.
Явления - указаны атмосферные явления, наблюдавшиеся в срок или в последний час перед сроком; фигурными скобками обозначены явления, наблюдавшиеся между сроками (за 1-3 часа до срока); квадратными скобками обозначены град или гололедные отложения с указанием их диаметра в мм.
Облачность - указаны через наклонную черту общая и нижняя облачность в баллах и высота нижней границы облаков в метрах; квадратными скобками обозначены формы облаков: Ci - перистые, Cs - перисто-слоистые, Cc - перисто-кучевые, Ac - высококучевые, As - высокослоистые, Sc - слоисто-кучевые, Ns - слоисто-дождевые, Cu - кучевые, Cb - кучево-дождевые. Подробнее классификацию облаков см. в Атласе облаков (PDF).
T - Температура воздуха - температура, измеренная на высоте 2 м над землей.
Td - Температура точки росы - температура, при понижении до которой содержащийся в воздухе водяной пар достигнет насыщения.
f - Относительная влажность воздуха - влажноcть воздуха, измеренная на высоте 2 м над землей.
Te - Эффективная температура - температура, которую ощущает одетый по сезону человек в тени. Характеристика душности погоды. При расчете учитывается влияние влажности воздуха и скорости ветра на теплоощущения человека.
Tes - Эффективная температура на солнце - температура, которую ощущает человек, с поправкой на солнечный нагрев. Характеристика знойности погоды. Зависит от высоты солнца над горизонтом, облачности и скорости ветра. Ночью, в пасмурную погоду, а также при ветре 12 м/с и более поправка равна нулю.
P - Атмосферное давление - приведенное к уровню моря атмосферное давление.
Po - Атмосферное давление - измеренное на уровне метеостанции атмосферное давление.
Tmin - Минимальная температура - минимум температуры воздуха на высоте 2 м над землей.
Tmax - Максимальная температура - максимум температуры воздуха на высоте 2 м над землей.
R - Количество осадков - Количество выпавших осадков за период времени, мм. При наведении курсора мыши на число - период времени, за который выпало указанное количество осадков.
R24 - Количество осадков - Количество выпавших осадков за 24 часа, мм.
S - Снежный покров - Высота снежного покрова, см. При наведении курсора мыши на число - состояние снежного покрова и степень покрытия местности в баллах.